Location: Erlenbrunn
(49.1717°N, 7.6142°E)
Time: 05:31:40
(UTC+00:00)

Okean O Rocket - Pass Details

Date: 25 November 2020
Orbit: 622 x 645 km, 98.2° (Epoch: 27 January)

Event Time Altitude Azimuth Distance (km) Brightness Sun altitude
Rises 17:24:05 0° 183° (S) 2,893 5.2 -16.8°
Reaches altitude 10° 17:26:22 10° 191° (S) 1,994 4.4 -17.2°
Maximum altitude 17:30:28 41° 262° (W) 919 3.0 -17.9°
Drops below altitude 10° 17:34:37 10° 333° (NNW) 2,020 4.4 -18.5°
Sets 17:36:57 0° 340° (NNW) 2,937 5.1 -18.9°
